User: anonymous   Login
Location: Oracle State Park
(32.6095°N, 110.7330°W)
Time: 18:26:29
(UTC-07:00)
Language:

DELFI C3 - Orbit

View from above orbital plane
View from above orbital plane
View from above satellite
View from above satellite

Ground track
Ground track

The orbit data is extracted from the following two-line orbital elements,

1 32789U 08021G   19325.71207627  .00000904  00000-0  63875-4 0  9998
2 32789  97.4466  10.5392 0010894 316.6401  43.3970 15.07269287630462
Epoch (UTC): 21 November 2019 17:05:23
Eccentricity: 0.0010894
inclination: 97.4466°
perigee height: 537 km
apogee height: 552 km
right ascension of ascending node: 10.5392°
argument of perigee: 316.6401°
revolutions per day: 15.07269287
mean anomaly at epoch: 43.3970°
orbit number at epoch: 63046

The dashed part of the orbit path shows where the satellite is in the earth's shadow,  

DLR